contact:dominique.lefevre@mio.osupytheas.fr, maurice.libes@osupytheas.fr, didier.mallarino@osupytheas.fr
Project:EMSO http://www.emso-fr.org/EMSO-France
Depth: 2436.0 m
Title:EMSO Ligure Ouest : Data MII capteur AQUADOPP
Date,Latitude,Longitude,X_East,Y_North,Z_Up,Amplitude_X,Amplitude_Y,Amplitude_Z,Batterie,SoundSpeed,Heading,Pitch,Roll,Pressure,TIS,Speed,Direction
, degrees North, degrees East, m.s-1, m.s-1,m.s-1, 1, 1, 1, Volt, m.s-1, degree, degree, degree, dbar, degree_C, m.s-1, degree
2021-07-02T00:04:03,42.805,6.029,-0.035,0.043,0.012,106.0,106.0,103.0,13.4,1505.2,329.1,-0.8,1.8,2470.57,13.28,0.055,320.9
2021-07-02T00:07:03,42.805,6.029,-0.053,0.016,0.001,105.0,105.0,103.0,13.4,1505.2,327.7,-0.8,1.8,2470.546,13.28,0.055,286.8
2021-07-02T00:10:03,42.805,6.029,-0.055,0.026,-0.003,106.0,104.0,102.0,13.4,1505.2,326.9,-0.7,1.9,2470.562,13.28,0.06,295.3
2021-07-02T00:13:03,42.805,6.029,-0.046,0.023,0.003,106.0,104.0,104.0,13.4,1505.2,328.4,-0.7,1.8,2470.545,13.28,0.051,296.6
2021-07-02T00:16:03,42.805,6.029,-0.025,0.016,0.013,106.0,106.0,102.0,13.4,1505.2,325.9,-0.7,1.8,2470.544,13.28,0.029,302.6
2021-07-02T00:19:03,42.805,6.029,-0.041,0.001,0.027,105.0,106.0,102.0,13.4,1505.2,326.0,-0.8,1.8,2470.586,13.28,0.041,271.4
2021-07-02T00:22:03,42.805,6.029,-0.037,0.02,0.0,105.0,104.0,103.0,13.4,1505.2,325.0,-0.7,1.8,2470.57,13.28,0.042,298.4
2021-07-02T00:25:03,42.805,6.029,-0.051,0.019,0.037,106.0,103.0,103.0,13.4,1505.2,326.7,-0.8,1.8,2470.538,13.28,0.054,290.4
2021-07-02T00:28:03,42.805,6.029,-0.023,0.023,0.02,105.0,104.0,103.0,13.4,1505.2,327.4,-0.8,1.8,2470.57,13.28,0.032,315.0
2021-07-02T00:31:03,42.805,6.029,-0.043,0.027,0.011,106.0,105.0,103.0,13.4,1505.2,327.0,-0.8,1.8,2470.562,13.29,0.05,302.1
2021-07-02T00:34:03,42.805,6.029,-0.032,0.01,0.017,105.0,105.0,102.0,13.4,1505.2,329.8,-0.7,1.8,2470.524,13.29,0.033,287.4
2021-07-02T00:37:03,42.805,6.029,-0.037,0.004,0.022,105.0,105.0,103.0,13.4,1505.2,325.4,-0.8,1.8,2470.549,13.29,0.037,276.2
2021-07-02T00:40:03,42.805,6.029,-0.027,0.02,0.015,105.0,104.0,101.0,13.4,1505.2,329.9,-0.7,1.8,2470.558,13.29,0.033,306.5
2021-07-02T00:43:03,42.805,6.029,-0.055,0.032,0.003,104.0,104.0,104.0,13.4,1505.2,328.9,-0.8,1.8,2470.547,13.29,0.063,300.2
2021-07-02T00:46:03,42.805,6.029,-0.046,0.016,-0.003,105.0,104.0,102.0,13.4,1505.2,325.9,-0.8,1.8,2470.505,13.29,0.048,289.2
2021-07-02T00:49:03,42.805,6.029,-0.034,0.008,0.016,105.0,104.0,102.0,13.4,1505.2,329.1,-0.7,1.8,2470.555,13.29,0.034,283.2
2021-07-02T00:52:03,42.805,6.029,-0.046,0.024,0.009,105.0,105.0,103.0,13.4,1505.2,327.9,-0.8,1.8,2470.547,13.29,0.051,297.6
2021-07-02T00:55:03,42.805,6.029,-0.036,0.017,-0.014,105.0,105.0,102.0,13.4,1505.2,325.4,-0.7,1.8,2470.566,13.28,0.039,295.3
2021-07-02T00:58:03,42.805,6.029,-0.03,0.03,0.008,105.0,105.0,103.0,13.4,1505.2,324.8,-0.7,1.8,2470.555,13.29,0.042,315.0
2021-07-02T01:04:03,42.805,6.029,-0.034,0.009,-0.001,105.0,105.0,102.0,13.3,1505.2,325.4,-0.8,1.8,2470.593,13.28,0.035,284.8
2021-07-02T01:07:03,42.805,6.029,-0.031,0.035,0.011,105.0,106.0,104.0,13.4,1505.2,326.5,-0.8,1.9,2470.577,13.28,0.046,318.5
2021-07-02T01:10:03,42.805,6.029,-0.025,-0.005,-0.005,106.0,106.0,102.0,13.4,1505.2,325.7,-0.8,1.8,2470.608,13.28,0.025,258.7
2021-07-02T01:13:03,42.805,6.029,-0.038,-0.007,0.031,104.0,105.0,103.0,13.4,1505.2,326.5,-0.8,1.8,2470.54,13.28,0.038,259.6
2021-07-02T01:16:03,42.805,6.029,-0.031,0.007,-0.009,105.0,105.0,104.0,13.4,1505.2,326.4,-0.8,1.8,2470.576,13.28,0.031,282.7
2021-07-02T01:19:03,42.805,6.029,-0.019,0.009,-0.009,106.0,106.0,102.0,13.3,1505.2,327.9,-0.8,1.8,2470.57,13.28,0.021,295.3
2021-07-02T01:22:03,42.805,6.029,-0.06,0.0,-0.005,105.0,104.0,103.0,13.4,1505.2,330.0,-0.8,1.8,2470.557,13.29,0.06,270.0
2021-07-02T01:25:03,42.805,6.029,-0.034,0.022,-0.005,108.0,105.0,102.0,13.4,1505.2,330.1,-0.8,1.8,2470.54,13.29,0.04,302.9
2021-07-02T01:28:03,42.805,6.029,-0.023,0.0,-0.007,105.0,105.0,103.0,13.4,1505.2,327.9,-0.7,1.8,2470.584,13.29,0.023,270.0
2021-07-02T01:31:03,42.805,6.029,-0.044,0.006,0.002,105.0,105.0,102.0,13.4,1505.2,329.0,-0.7,1.8,2470.569,13.29,0.044,277.8
2021-07-02T01:34:03,42.805,6.029,-0.028,0.006,-0.006,105.0,105.0,103.0,13.4,1505.2,328.6,-0.8,1.8,2470.533,13.29,0.028,282.1
2021-07-02T01:37:03,42.805,6.029,-0.028,0.018,0.012,105.0,105.0,104.0,13.3,1505.2,329.2,-0.7,1.8,2470.541,13.29,0.033,302.7
2021-07-02T01:40:03,42.805,6.029,-0.036,0.005,-0.008,105.0,106.0,102.0,13.4,1505.2,327.9,-0.8,1.8,2470.579,13.29,0.036,277.9
2021-07-02T01:43:03,42.805,6.029,-0.017,0.011,0.005,106.0,105.0,104.0,13.4,1505.2,329.4,-0.7,1.8,2470.506,13.29,0.02,302.9
2021-07-02T01:46:03,42.805,6.029,-0.032,0.007,-0.003,105.0,105.0,103.0,13.3,1505.2,328.0,-0.7,1.8,2470.531,13.29,0.032,282.3
2021-07-02T01:49:03,42.805,6.029,-0.049,0.016,0.005,105.0,105.0,103.0,13.3,1505.2,326.2,-0.8,1.8,2470.531,13.29,0.051,288.1
2021-07-02T01:52:03,42.805,6.029,-0.041,0.001,0.009,106.0,105.0,103.0,13.4,1505.2,325.4,-0.8,1.8,2470.555,13.29,0.041,271.4
2021-07-02T01:55:03,42.805,6.029,-0.029,-0.004,-0.008,105.0,106.0,102.0,13.4,1505.2,327.0,-0.7,1.9,2470.554,13.29,0.029,262.2
2021-07-02T01:58:03,42.805,6.029,-0.017,0.004,-0.005,105.0,105.0,103.0,13.3,1505.2,329.2,-0.8,1.8,2470.528,13.29,0.017,283.2
2021-07-02T02:04:03,42.805,6.029,-0.025,0.006,0.017,107.0,105.0,103.0,13.4,1505.2,326.8,-0.8,1.8,2470.542,13.28,0.025,283.5
2021-07-02T02:07:03,42.805,6.029,-0.028,0.026,0.003,106.0,106.0,103.0,13.3,1505.2,327.1,-0.8,1.8,2470.542,13.28,0.038,312.9
2021-07-02T02:10:03,42.805,6.029,-0.041,0.017,0.003,105.0,104.0,103.0,13.4,1505.2,326.9,-0.7,1.8,2470.555,13.28,0.044,292.5
2021-07-02T02:13:03,42.805,6.029,-0.028,0.022,0.019,104.0,105.0,103.0,13.4,1505.2,326.7,-0.7,1.8,2470.527,13.28,0.035,308.2
2021-07-02T02:16:03,42.805,6.029,-0.024,0.012,-0.02,106.0,106.0,102.0,13.4,1505.2,328.7,-0.7,1.8,2470.549,13.28,0.026,296.6
2021-07-02T02:19:03,42.805,6.029,-0.04,0.004,0.019,105.0,104.0,104.0,13.3,1505.2,326.5,-0.7,1.8,2470.474,13.28,0.04,275.7
2021-07-02T02:22:03,42.805,6.029,-0.016,0.0,-0.007,104.0,103.0,103.0,13.3,1505.2,325.6,-0.8,1.8,2470.523,13.28,0.016,270.0
2021-07-02T02:25:03,42.805,6.029,-0.008,0.004,0.005,105.0,106.0,102.0,13.4,1505.2,326.8,-0.8,1.8,2470.559,13.28,0.008,296.6
2021-07-02T02:28:03,42.805,6.029,-0.032,-0.003,-0.026,106.0,105.0,103.0,13.3,1505.2,325.1,-0.7,1.8,2470.541,13.28,0.032,264.6
2021-07-02T02:31:03,42.805,6.029,-0.039,0.008,0.034,105.0,105.0,102.0,13.4,1505.2,328.0,-0.8,1.8,2470.563,13.28,0.039,281.6
2021-07-02T02:34:03,42.805,6.029,-0.041,0.029,-0.012,106.0,106.0,102.0,13.4,1505.2,326.6,-0.8,1.8,2470.501,13.29,0.05,305.3
2021-07-02T02:37:03,42.805,6.029,-0.04,0.017,-0.007,105.0,105.0,104.0,13.4,1505.2,330.4,-0.8,1.8,2470.535,13.28,0.043,293.0
2021-07-02T02:40:03,42.805,6.029,-0.017,0.003,-0.008,105.0,105.0,103.0,13.3,1505.2,326.9,-0.8,1.8,2470.517,13.28,0.017,280.0
2021-07-02T02:43:03,42.805,6.029,-0.047,0.025,0.025,105.0,106.0,103.0,13.3,1505.2,328.6,-0.8,1.8,2470.533,13.28,0.053,298.0
2021-07-02T02:46:03,42.805,6.029,-0.031,-0.009,0.004,105.0,104.0,102.0,13.4,1505.2,325.6,-0.7,1.8,2470.496,13.29,0.032,253.8
2021-07-02T02:49:03,42.805,6.029,-0.058,0.033,-0.013,105.0,105.0,102.0,13.4,1505.2,327.1,-0.7,1.8,2470.514,13.28,0.066,299.6
2021-07-02T02:52:03,42.805,6.029,-0.035,0.019,0.005,105.0,107.0,102.0,13.4,1505.2,330.5,-0.8,1.8,2470.552,13.28,0.039,298.5
2021-07-02T02:55:03,42.805,6.029,-0.038,0.006,0.006,106.0,104.0,102.0,13.3,1505.2,327.2,-0.7,1.8,2470.515,13.28,0.038,279.0
2021-07-02T02:58:03,42.805,6.029,-0.021,-0.008,0.01,105.0,105.0,102.0,13.4,1505.2,327.0,-0.7,1.8,2470.474,13.28,0.022,249.1
2021-07-02T03:04:03,42.805,6.029,-0.023,-0.005,0.01,106.0,105.0,104.0,13.4,1505.2,328.3,-0.7,1.8,2470.538,13.28,0.023,257.7
2021-07-02T03:07:03,42.805,6.029,-0.034,0.011,-0.001,105.0,105.0,104.0,13.4,1505.2,328.3,-0.8,1.8,2470.516,13.28,0.035,287.9
2021-07-02T03:10:03,42.805,6.029,-0.026,0.011,0.007,106.0,106.0,103.0,13.4,1505.2,329.2,-0.7,1.8,2470.523,13.28,0.028,292.9
2021-07-02T03:13:03,42.805,6.029,-0.027,0.02,0.021,105.0,106.0,103.0,13.4,1505.2,327.4,-0.7,1.8,2470.525,13.28,0.033,306.5
2021-07-02T03:16:03,42.805,6.029,-0.025,0.001,0.012,105.0,105.0,102.0,13.4,1505.2,328.4,-0.8,1.8,2470.504,13.28,0.025,272.3
2021-07-02T03:19:03,42.805,6.029,-0.047,0.019,0.007,105.0,104.0,103.0,13.4,1505.2,325.1,-0.8,1.8,2470.528,13.28,0.05,292.0
2021-07-02T03:22:03,42.805,6.029,-0.049,0.008,-0.001,105.0,105.0,103.0,13.4,1505.2,328.6,-0.8,1.8,2470.538,13.28,0.049,279.3
2021-07-02T03:25:03,42.805,6.029,-0.034,0.026,-0.045,105.0,104.0,103.0,13.4,1505.2,326.2,-0.8,1.8,2470.505,13.28,0.042,307.4
2021-07-02T03:28:03,42.805,6.029,-0.031,0.017,0.015,105.0,105.0,104.0,13.3,1505.2,328.0,-0.8,1.8,2470.53,13.28,0.035,298.7
2021-07-02T03:31:03,42.805,6.029,-0.044,0.021,0.009,104.0,104.0,102.0,13.3,1505.2,325.7,-0.7,1.8,2470.518,13.29,0.048,295.5
2021-07-02T03:34:03,42.805,6.029,-0.04,-0.007,0.016,104.0,105.0,102.0,13.3,1505.2,329.6,-0.8,1.8,2470.518,13.29,0.04,260.1
2021-07-02T03:37:03,42.805,6.029,-0.023,0.026,0.008,105.0,105.0,102.0,13.3,1505.2,327.1,-0.8,1.8,2470.504,13.28,0.034,318.5
2021-07-02T03:40:03,42.805,6.029,-0.052,0.013,0.005,105.0,105.0,102.0,13.4,1505.2,326.3,-0.7,1.8,2470.515,13.29,0.053,284.0
2021-07-02T03:43:03,42.805,6.029,-0.034,0.022,-0.022,104.0,104.0,103.0,13.3,1505.2,328.5,-0.8,1.8,2470.486,13.28,0.04,302.9
2021-07-02T03:46:03,42.805,6.029,-0.031,0.025,0.052,104.0,104.0,103.0,13.4,1505.2,326.7,-0.7,1.9,2470.523,13.29,0.039,308.9
2021-07-02T03:49:03,42.805,6.029,-0.023,0.001,-0.022,106.0,106.0,103.0,13.4,1505.2,327.1,-0.7,1.9,2470.535,13.29,0.023,272.5
2021-07-02T03:52:03,42.805,6.029,-0.024,0.003,0.0,104.0,106.0,104.0,13.3,1505.2,328.2,-0.8,1.8,2470.5,13.29,0.024,277.1
2021-07-02T03:55:03,42.805,6.029,-0.029,0.011,-0.023,106.0,105.0,102.0,13.3,1505.2,327.0,-0.7,1.8,2470.499,13.28,0.031,290.8
2021-07-02T03:58:03,42.805,6.029,-0.019,0.0,-0.009,106.0,105.0,102.0,13.4,1505.2,326.2,-0.7,1.8,2470.506,13.28,0.019,270.0
2021-07-02T04:04:03,42.805,6.029,-0.045,0.01,0.008,105.0,104.0,103.0,13.4,1505.2,327.8,-0.8,1.8,2470.517,13.28,0.046,282.5
2021-07-02T04:07:03,42.805,6.029,-0.046,0.015,0.019,106.0,105.0,102.0,13.3,1505.2,327.1,-0.7,1.8,2470.516,13.28,0.048,288.1
2021-07-02T04:10:03,42.805,6.029,-0.04,0.001,0.003,105.0,105.0,103.0,13.4,1505.2,329.7,-0.8,1.8,2470.552,13.28,0.04,271.4
2021-07-02T04:13:03,42.805,6.029,-0.04,-0.003,-0.013,105.0,104.0,103.0,13.4,1505.2,324.6,-0.8,1.8,2470.519,13.28,0.04,265.7
2021-07-02T04:16:03,42.805,6.029,-0.041,0.002,-0.022,105.0,106.0,103.0,13.3,1505.2,329.2,-0.8,1.8,2470.518,13.28,0.041,272.8
2021-07-02T04:19:03,42.805,6.029,-0.051,0.006,0.018,104.0,106.0,103.0,13.4,1505.2,329.9,-0.8,1.8,2470.52,13.28,0.051,276.7
2021-07-02T04:22:03,42.805,6.029,-0.012,0.006,-0.019,105.0,105.0,103.0,13.4,1505.2,326.7,-0.8,1.8,2470.475,13.28,0.013,296.6
2021-07-02T04:25:03,42.805,6.029,-0.055,0.004,-0.019,106.0,104.0,103.0,13.4,1505.2,326.0,-0.7,1.8,2470.457,13.29,0.055,274.2
2021-07-02T04:28:03,42.805,6.029,-0.057,-0.013,-0.006,105.0,104.0,102.0,13.4,1505.2,325.5,-0.8,1.8,2470.472,13.28,0.058,257.2
2021-07-02T04:31:03,42.805,6.029,-0.014,0.012,0.021,105.0,105.0,103.0,13.3,1505.2,330.1,-0.7,1.8,2470.479,13.28,0.018,310.6
2021-07-02T04:34:03,42.805,6.029,-0.028,0.023,0.001,105.0,106.0,102.0,13.4,1505.2,328.1,-0.8,1.8,2470.47,13.28,0.036,309.4
2021-07-02T04:37:03,42.805,6.029,-0.024,0.008,0.003,105.0,105.0,103.0,13.3,1505.2,326.0,-0.7,1.8,2470.492,13.28,0.025,288.4
2021-07-02T04:40:03,42.805,6.029,-0.03,0.016,0.006,106.0,106.0,103.0,13.4,1505.2,328.6,-0.7,1.8,2470.474,13.28,0.034,298.1
2021-07-02T04:43:03,42.805,6.029,-0.044,0.016,0.013,106.0,105.0,103.0,13.3,1505.2,329.6,-0.8,1.8,2470.469,13.29,0.046,290.0
2021-07-02T04:46:03,42.805,6.029,-0.04,0.001,-0.011,107.0,104.0,103.0,13.4,1505.2,327.1,-0.7,1.8,2470.444,13.28,0.04,271.4
2021-07-02T04:49:03,42.805,6.029,-0.026,0.001,-0.006,106.0,105.0,103.0,13.4,1505.2,325.2,-0.8,1.8,2470.47,13.28,0.026,272.2
2021-07-02T04:52:03,42.805,6.029,-0.038,-0.013,-0.01,104.0,106.0,103.0,13.4,1505.2,326.7,-0.8,1.8,2470.475,13.28,0.04,251.1
2021-07-02T04:55:03,42.805,6.029,-0.062,0.021,-0.015,106.0,104.0,103.0,13.4,1505.2,329.5,-0.8,1.8,2470.437,13.28,0.065,288.7
2021-07-02T04:58:03,42.805,6.029,-0.012,0.0,0.011,106.0,106.0,102.0,13.4,1505.2,327.9,-0.8,1.9,2470.499,13.28,0.012,270.0
2021-07-02T05:04:03,42.805,6.029,-0.044,0.004,0.005,106.0,106.0,103.0,13.3,1505.2,328.5,-0.8,1.8,2470.468,13.28,0.044,275.2
2021-07-02T05:07:03,42.805,6.029,-0.027,0.001,0.041,105.0,106.0,104.0,13.4,1505.2,326.8,-0.8,1.8,2470.501,13.28,0.027,272.1
2021-07-02T05:10:03,42.805,6.029,-0.01,0.033,0.026,105.0,105.0,103.0,13.4,1505.2,325.7,-0.8,1.8,2470.483,13.28,0.034,343.1
2021-07-02T05:13:03,42.805,6.029,-0.03,0.01,0.001,106.0,104.0,103.0,13.3,1505.2,326.3,-0.7,1.8,2470.462,13.28,0.031,288.4
2021-07-02T05:16:03,42.805,6.029,-0.048,0.04,0.005,105.0,105.0,103.0,13.4,1505.2,327.7,-0.7,1.8,2470.478,13.28,0.062,309.8
2021-07-02T05:19:03,42.805,6.029,-0.044,0.014,-0.031,106.0,106.0,103.0,13.4,1505.2,330.3,-0.8,1.8,2470.498,13.28,0.046,287.6
2021-07-02T05:22:03,42.805,6.029,-0.041,0.007,0.0,105.0,105.0,103.0,13.4,1505.2,328.0,-0.8,1.8,2470.517,13.28,0.041,279.7
2021-07-02T05:25:03,42.805,6.029,-0.037,-0.006,0.016,105.0,106.0,103.0,13.4,1505.2,328.5,-0.8,1.8,2470.463,13.28,0.037,260.8
2021-07-02T05:28:03,42.805,6.029,-0.041,0.002,-0.003,104.0,106.0,103.0,13.4,1505.2,326.4,-0.8,1.8,2470.476,13.28,0.041,272.8
2021-07-02T05:31:03,42.805,6.029,-0.034,0.019,0.026,106.0,105.0,103.0,13.4,1505.2,327.3,-0.8,1.8,2470.431,13.28,0.038,299.2
2021-07-02T05:34:03,42.805,6.029,-0.047,0.012,-0.013,106.0,105.0,104.0,13.4,1505.2,327.5,-0.8,1.8,2470.425,13.28,0.048,284.3
2021-07-02T05:37:03,42.805,6.029,-0.038,0.015,0.012,106.0,105.0,103.0,13.4,1505.2,326.3,-0.8,1.8,2470.462,13.29,0.04,291.5
2021-07-02T05:40:03,42.805,6.029,-0.04,-0.001,0.018,106.0,106.0,103.0,13.4,1505.2,328.3,-0.8,1.8,2470.442,13.28,0.04,268.6
2021-07-02T05:43:03,42.805,6.029,-0.026,0.006,0.022,106.0,105.0,102.0,13.4,1505.2,325.3,-0.8,1.8,2470.453,13.28,0.026,283.0
2021-07-02T05:46:03,42.805,6.029,-0.03,0.006,0.005,105.0,106.0,103.0,13.3,1505.2,329.0,-0.7,1.9,2470.419,13.28,0.03,281.3
2021-07-02T05:49:03,42.805,6.029,-0.046,0.015,0.015,105.0,104.0,103.0,13.3,1505.2,328.6,-0.7,1.8,2470.468,13.28,0.048,288.1
2021-07-02T05:52:03,42.805,6.029,-0.04,0.028,-0.002,105.0,105.0,102.0,13.4,1505.2,326.1,-0.7,1.8,2470.456,13.28,0.048,305.0
2021-07-02T05:55:03,42.805,6.029,-0.041,0.014,-0.012,104.0,106.0,103.0,13.4,1505.2,327.2,-0.8,1.9,2470.473,13.28,0.043,288.9
2021-07-02T05:58:03,42.805,6.029,-0.049,0.011,0.037,106.0,104.0,102.0,13.4,1505.2,328.8,-0.7,1.8,2470.451,13.28,0.05,282.7
2021-07-02T06:04:03,42.805,6.029,-0.013,0.014,0.012,106.0,103.0,103.0,13.4,1505.2,326.7,-0.8,1.8,2470.483,13.28,0.019,317.1
2021-07-02T06:07:03,42.805,6.029,-0.03,0.019,0.025,105.0,103.0,102.0,13.4,1505.2,327.3,-0.7,1.8,2470.483,13.28,0.035,302.3
2021-07-02T06:10:03,42.805,6.029,-0.052,-0.001,0.014,104.0,103.0,103.0,13.3,1505.2,327.6,-0.8,1.9,2470.475,13.28,0.052,268.9
2021-07-02T06:13:03,42.805,6.029,-0.022,0.0,-0.011,105.0,103.0,103.0,13.4,1505.2,326.5,-0.7,1.8,2470.453,13.28,0.022,270.0
2021-07-02T06:16:03,42.805,6.029,-0.024,0.019,0.008,104.0,104.0,102.0,13.4,1505.2,327.6,-0.7,1.8,2470.45,13.28,0.03,308.4
2021-07-02T06:19:03,42.805,6.029,-0.03,0.01,-0.016,104.0,104.0,101.0,13.4,1505.2,326.4,-0.7,1.9,2470.456,13.28,0.031,288.4
2021-07-02T06:22:03,42.805,6.029,-0.027,0.026,0.005,105.0,104.0,103.0,13.4,1505.2,325.6,-0.8,1.8,2470.429,13.28,0.037,313.9
2021-07-02T06:25:03,42.805,6.029,-0.04,0.006,-0.027,104.0,103.0,101.0,13.3,1505.2,327.7,-0.7,1.9,2470.431,13.28,0.04,278.5
2021-07-02T06:28:03,42.805,6.029,-0.035,0.005,0.037,103.0,103.0,102.0,13.4,1505.2,327.2,-0.8,1.8,2470.472,13.28,0.035,278.1
2021-07-02T06:31:03,42.805,6.029,-0.023,0.01,0.019,103.0,103.0,102.0,13.4,1505.2,325.1,-0.8,1.9,2470.452,13.28,0.025,293.5
2021-07-02T06:34:03,42.805,6.029,-0.024,0.005,0.006,104.0,102.0,103.0,13.4,1505.2,326.0,-0.8,1.8,2470.402,13.28,0.024,281.8
2021-07-02T06:37:03,42.805,6.029,-0.029,0.023,0.04,104.0,105.0,101.0,13.4,1505.2,326.4,-0.7,1.8,2470.518,13.28,0.037,308.4
2021-07-02T06:40:03,42.805,6.029,-0.061,0.009,0.021,104.0,103.0,102.0,13.4,1505.2,327.6,-0.7,1.8,2470.436,13.28,0.061,278.4
2021-07-02T06:43:03,42.805,6.029,-0.048,0.004,0.014,104.0,103.0,102.0,13.3,1505.2,327.8,-0.8,1.8,2470.437,13.28,0.048,274.8
2021-07-02T06:46:03,42.805,6.029,-0.031,0.021,0.022,104.0,105.0,102.0,13.4,1505.2,329.7,-0.7,1.9,2470.451,13.28,0.037,304.1
2021-07-02T06:49:03,42.805,6.029,-0.025,0.002,0.01,104.0,104.0,102.0,13.4,1505.2,326.3,-0.7,1.8,2470.468,13.28,0.025,274.6
2021-07-02T06:52:03,42.805,6.029,-0.035,0.009,0.001,105.0,103.0,102.0,13.4,1505.2,325.4,-0.7,1.8,2470.434,13.28,0.036,284.4
2021-07-02T06:55:03,42.805,6.029,-0.048,0.012,-0.015,105.0,105.0,102.0,13.3,1505.2,329.5,-0.8,1.8,2470.45,13.28,0.049,284.0
2021-07-02T06:58:03,42.805,6.029,-0.051,0.011,-0.011,105.0,104.0,102.0,13.4,1505.2,327.5,-0.7,1.8,2470.456,13.28,0.052,282.2
2021-07-02T07:04:03,42.805,6.029,-0.033,0.01,0.012,104.0,105.0,103.0,13.3,1505.2,325.6,-0.8,1.8,2470.496,13.28,0.034,286.9
2021-07-02T07:07:03,42.805,6.029,-0.02,0.01,0.008,105.0,105.0,102.0,13.4,1505.2,326.7,-0.8,1.8,2470.436,13.28,0.022,296.6
2021-07-02T07:10:03,42.805,6.029,-0.034,0.018,0.005,105.0,105.0,102.0,13.3,1505.2,325.0,-0.8,1.8,2470.453,13.28,0.038,297.9
2021-07-02T07:13:03,42.805,6.029,-0.036,0.009,-0.006,105.0,105.0,103.0,13.4,1505.2,327.0,-0.8,1.8,2470.465,13.28,0.037,284.0
2021-07-02T07:16:03,42.805,6.029,-0.042,-0.005,-0.002,104.0,105.0,103.0,13.4,1505.2,328.8,-0.7,1.8,2470.463,13.28,0.042,263.2
2021-07-02T07:19:03,42.805,6.029,-0.039,0.02,-0.01,104.0,104.0,103.0,13.4,1505.2,328.9,-0.7,1.8,2470.406,13.28,0.043,297.1
2021-07-02T07:22:03,42.805,6.029,-0.034,0.004,0.003,104.0,103.0,102.0,13.4,1505.2,326.0,-0.8,1.8,2470.409,13.28,0.034,276.7
2021-07-02T07:25:03,42.805,6.029,-0.024,0.016,-0.012,104.0,104.0,101.0,13.4,1505.2,328.2,-0.8,1.8,2470.389,13.28,0.028,303.7
2021-07-02T07:28:03,42.805,6.029,-0.036,0.011,0.022,103.0,104.0,103.0,13.4,1505.2,328.3,-0.8,1.8,2470.415,13.28,0.037,287.0
2021-07-02T07:31:03,42.805,6.029,-0.045,0.014,-0.02,106.0,104.0,102.0,13.4,1505.2,324.9,-0.8,1.9,2470.439,13.28,0.047,287.3
2021-07-02T07:34:03,42.805,6.029,-0.022,0.015,0.024,105.0,103.0,103.0,13.4,1505.2,330.0,-0.7,1.8,2470.403,13.28,0.026,304.3
2021-07-02T07:37:03,42.805,6.029,-0.039,0.018,-0.02,106.0,105.0,101.0,13.3,1505.2,329.1,-0.8,1.8,2470.453,13.28,0.042,294.8
2021-07-02T07:40:03,42.805,6.029,-0.027,0.005,0.004,104.0,104.0,102.0,13.4,1505.2,327.2,-0.8,1.8,2470.436,13.28,0.027,280.5
2021-07-02T07:43:03,42.805,6.029,-0.053,-0.002,0.005,103.0,105.0,101.0,13.4,1505.2,329.8,-0.7,1.8,2470.443,13.28,0.053,267.8
2021-07-02T07:46:03,42.805,6.029,-0.028,0.017,0.006,104.0,104.0,102.0,13.4,1505.2,325.6,-0.8,1.8,2470.422,13.28,0.032,301.3
2021-07-02T07:49:03,42.805,6.029,-0.05,0.042,0.019,104.0,104.0,102.0,13.3,1505.2,326.6,-0.8,1.8,2470.467,13.28,0.065,310.0
2021-07-02T07:52:03,42.805,6.029,-0.045,0.014,0.005,104.0,105.0,103.0,13.4,1505.2,327.2,-0.7,1.8,2470.418,13.28,0.047,287.3
2021-07-02T07:55:03,42.805,6.029,-0.024,-0.016,-0.015,104.0,105.0,103.0,13.4,1505.2,328.3,-0.7,1.8,2470.434,13.28,0.028,236.3
2021-07-02T07:58:03,42.805,6.029,-0.049,0.001,0.02,104.0,103.0,102.0,13.4,1505.2,327.9,-0.8,1.8,2470.408,13.28,0.049,271.2
2021-07-02T08:04:03,42.805,6.029,-0.045,-0.006,0.008,104.0,104.0,103.0,13.4,1505.2,326.6,-0.8,1.8,2470.448,13.28,0.045,262.4
2021-07-02T08:07:03,42.805,6.029,-0.043,0.004,-0.015,104.0,104.0,102.0,13.4,1505.2,326.5,-0.7,1.8,2470.416,13.28,0.043,275.3
2021-07-02T08:10:03,42.805,6.029,-0.049,0.021,0.028,104.0,104.0,103.0,13.4,1505.2,327.9,-0.8,1.8,2470.466,13.28,0.053,293.2
2021-07-02T08:13:03,42.805,6.029,-0.029,0.004,-0.003,104.0,104.0,102.0,13.4,1505.2,327.0,-0.8,1.8,2470.432,13.28,0.029,277.8
2021-07-02T08:16:03,42.805,6.029,-0.047,0.003,0.015,104.0,105.0,102.0,13.4,1505.2,327.6,-0.8,1.8,2470.445,13.28,0.047,273.6
2021-07-02T08:19:03,42.805,6.029,-0.058,0.028,-0.019,104.0,104.0,102.0,13.4,1505.2,329.7,-0.7,1.8,2470.438,13.28,0.064,295.8
2021-07-02T08:22:03,42.805,6.029,-0.047,0.019,-0.013,105.0,104.0,102.0,13.4,1505.2,328.2,-0.7,1.8,2470.418,13.28,0.05,292.0
2021-07-02T08:25:03,42.805,6.029,-0.044,0.02,-0.011,103.0,104.0,102.0,13.3,1505.2,325.1,-0.7,1.9,2470.441,13.28,0.048,294.4
2021-07-02T08:28:03,42.805,6.029,-0.055,0.012,0.023,105.0,103.0,102.0,13.4,1505.2,327.1,-0.8,1.8,2470.41,13.28,0.056,282.3
2021-07-02T08:31:03,42.805,6.029,-0.034,-0.01,-0.016,105.0,105.0,103.0,13.4,1505.2,326.2,-0.7,1.8,2470.473,13.28,0.035,253.6
2021-07-02T08:34:03,42.805,6.029,-0.029,0.008,0.009,104.0,104.0,102.0,13.4,1505.2,328.5,-0.8,1.8,2470.437,13.28,0.03,285.4
2021-07-02T08:37:03,42.805,6.029,-0.04,0.014,0.023,104.0,104.0,102.0,13.4,1505.2,327.0,-0.7,1.8,2470.42,13.28,0.042,289.3
2021-07-02T08:40:03,42.805,6.029,-0.034,0.018,0.002,104.0,105.0,101.0,13.4,1505.2,326.0,-0.8,1.8,2470.426,13.28,0.038,297.9
2021-07-02T08:43:03,42.805,6.029,-0.017,0.017,0.023,103.0,105.0,102.0,13.4,1505.2,324.9,-0.7,1.8,2470.435,13.28,0.024,315.0
2021-07-02T08:46:03,42.805,6.029,-0.025,0.007,-0.006,104.0,104.0,103.0,13.4,1505.2,330.0,-0.7,1.8,2470.416,13.28,0.025,285.6
2021-07-02T08:49:03,42.805,6.029,-0.061,0.019,0.001,105.0,104.0,102.0,13.4,1505.2,326.1,-0.7,1.8,2470.435,13.28,0.063,287.3
2021-07-02T08:52:03,42.805,6.029,-0.045,0.014,0.0,104.0,104.0,102.0,13.4,1505.2,328.5,-0.7,1.8,2470.412,13.28,0.047,287.3
2021-07-02T08:55:03,42.805,6.029,-0.041,0.021,0.012,104.0,104.0,101.0,13.3,1505.2,326.6,-0.8,1.8,2470.419,13.28,0.046,297.1
2021-07-02T08:58:03,42.805,6.029,-0.036,0.009,-0.002,103.0,103.0,103.0,13.3,1505.2,325.1,-0.8,1.9,2470.4,13.28,0.037,284.0
2021-07-02T09:04:03,42.805,6.029,-0.042,0.011,0.031,104.0,104.0,102.0,13.4,1505.2,326.2,-0.7,1.8,2470.418,13.28,0.043,284.7
2021-07-02T09:07:03,42.805,6.029,-0.062,0.0,-0.008,104.0,104.0,102.0,13.3,1505.2,328.3,-0.8,1.8,2470.473,13.28,0.061,270.0
2021-07-02T09:10:03,42.805,6.029,-0.026,0.008,-0.014,104.0,104.0,103.0,13.4,1505.2,326.0,-0.8,1.8,2470.423,13.28,0.027,287.1
2021-07-02T09:13:03,42.805,6.029,-0.03,0.015,0.0,105.0,105.0,103.0,13.4,1505.2,328.6,-0.8,1.8,2470.449,13.28,0.033,296.6
2021-07-02T09:16:03,42.805,6.029,-0.022,0.019,-0.013,105.0,104.0,103.0,13.3,1505.2,329.7,-0.7,1.8,2470.476,13.28,0.029,310.8
2021-07-02T09:19:03,42.805,6.029,-0.041,-0.002,0.028,104.0,104.0,102.0,13.3,1505.2,328.8,-0.8,1.8,2470.433,13.28,0.041,267.2
2021-07-02T09:22:03,42.805,6.029,-0.061,0.028,-0.001,103.0,104.0,103.0,13.4,1505.2,329.9,-0.7,1.8,2470.437,13.28,0.067,294.7
2021-07-02T09:25:03,42.805,6.029,-0.043,0.019,-0.004,105.0,103.0,103.0,13.3,1505.2,330.1,-0.8,1.8,2470.427,13.28,0.047,293.8
2021-07-02T09:28:03,42.805,6.029,-0.008,-0.008,-0.004,104.0,104.0,102.0,13.4,1505.2,329.9,-0.7,1.8,2470.409,13.28,0.011,225.0
2021-07-02T09:31:03,42.805,6.029,-0.026,0.011,0.029,104.0,104.0,101.0,13.3,1505.2,326.7,-0.8,1.9,2470.449,13.28,0.028,292.9
2021-07-02T09:34:03,42.805,6.029,-0.011,0.029,-0.004,104.0,104.0,103.0,13.4,1505.2,327.7,-0.8,1.8,2470.45,13.28,0.031,339.2
2021-07-02T09:37:03,42.805,6.029,-0.018,0.0,-0.012,105.0,105.0,103.0,13.4,1505.2,324.9,-0.7,1.8,2470.436,13.28,0.018,270.0
2021-07-02T09:40:03,42.805,6.029,-0.037,-0.009,0.007,105.0,102.0,103.0,13.3,1505.2,330.1,-0.7,1.9,2470.404,13.28,0.038,256.3
2021-07-02T09:43:03,42.805,6.029,-0.021,0.022,-0.002,105.0,105.0,102.0,13.4,1505.2,326.2,-0.7,1.8,2470.43,13.28,0.03,316.3
2021-07-02T09:46:03,42.805,6.029,-0.023,0.003,0.012,105.0,103.0,101.0,13.4,1505.2,324.7,-0.7,1.8,2470.438,13.28,0.023,277.4
2021-07-02T09:49:03,42.805,6.029,-0.046,0.009,-0.022,104.0,104.0,104.0,13.3,1505.2,326.3,-0.8,1.8,2470.423,13.28,0.046,281.1
2021-07-02T09:52:03,42.805,6.029,-0.029,-0.003,-0.003,106.0,104.0,103.0,13.3,1505.2,326.0,-0.7,1.8,2470.387,13.28,0.029,264.1
2021-07-02T09:55:03,42.805,6.029,-0.025,0.012,0.006,104.0,105.0,102.0,13.3,1505.2,326.5,-0.8,1.8,2470.442,13.28,0.027,295.6